Location: *
(45.0500°N, 12.0500°E)
Time: 10:41:52
(UTC+00:00)

Resurs 01 Rocket - Pass Details

Date: 09 April 2020
Orbit: 635 x 643 km, 98.0° (Epoch: 25 May)

Event Time Altitude Azimuth Distance (km) Brightness Sun altitude
Exits shadow 19:17:44 25° 137° (SE) 1,303 2.7 -15.3°
Maximum altitude 19:20:06 52° 72° (ENE) 794 1.8 -15.6°
Drops below altitude 10° 19:24:24 10° 356° (N) 2,036 4.7 -16.3°
Sets 19:26:39 0° 352° (N) 2,951 5.6 -16.7°
